OBJECT D, 100752

Orbit data source: Space-Track

You're viewing an uncataloged RSO

Recently launched and/or uncataloged RSOs may have evolving metadata. Metadata may include the following, but is not limited to: Owner, Manufacturer, Bus, Motor, and Mission.

OBJECT D, 100752 is a satellite owned by Hangtian Hongtu (CN) in SSO that was launched on Sat, 19 Sep 2026 UTC launched from the Taiyaun Space Center, China (TSC). Unknown objects in Earth's orbit typically refer to objects detected orbiting the Earth but have not yet been identified or cataloged. These objects could be anything from previously untracked satellites, spent rocket stages, debris from satellite collisions, or even natural meteoroids temporarily captured by Earth's gravity.

Loading next visibility...
Identifier
100752, 2026-218D
Orbit
SSO
Country
Flag of CNCN / PRC
Related business
Manufacturer
Yinhe
Mission
Operational spacecraft
Bus & Motor
PIESAT, Unknown motor
Mass
270 kg wet, 270 kg dry
Launch date (UTC)
2026-09-19 (2 days ago)
Launch vehicle
Unknown
Launch site
Taiyaun Space Center, China (TSC)
Object type
Unknown
Shape & HBR
BOX + 2 PAN, 2.0 m
Radar Cross Section
RCS unknown

Expand to show TLE details & history
Last TLE update: 8 hours ago

TLE from 8 hours ago
0 OBJECT D
1 A0752U 26218D   26264.61017117  .00001595  00000-0  90408-4 0  9992
2 A0752  97.4906  90.5230 0011841 281.9765  78.0139 15.14390103   334
Epoch: 2026-09-21T14:38Z
TLE epoch observation values (Epoch: 2026-09-21T14:38:38.789Z)
Latitude
-0.00003°
Longitude
-129.62615°
Altitude
524.223 km
Speed
7.602 km/s
True Right ascension
06h 02m 05s
True Declination
0° 00' 00"
Sunlit
Object was in daylight at epoch
Visualization orbit readout
Latitude
Unknown
Longitude
Unknown
Altitude
Unknown
Speed
Unknown
Apparent Right ascension
Unknown
Apparent Declination
Unknown
Sunlit
N/A
Visualization observer readout
Local Sidereal Time
15:36:40
Azimuth
Unknown
Elevation
Unknown
Doppler factor
Unknown
Orbital elements
Apogee altitude
527.976 km
Perigee altitude
511.64 km
Semi-major axis
6,897.945 km
Eccentricity
0.00118
Inclination
97.4906°
RAAN
90.523°
Arg. of periapsis
281.9765°
True anomaly
78.14667°
Mean anomaly
78.0139°
Eccentric anomaly
78.08028°
Mean motion
3.78847 °/min
Orbital period
95.03 mins
BSTAR
0.000090408
Loading maneuver chart data...
Computing Atmospheric mass density...
Loading historical data...
Loading historical data...
Loading historical data...
Loading historical data...
Loading historical data...
Loading historical data...
Loading historical data...
Other satellites on launch #218 in the year 2026 (2026-09-19 UTC)

Documentation

Showing up to 5 results
|